Theta_e
269 269 269 269 269 269 269 269 270 270 270 269 269 270 272 274 275 275 275 276 276 278 279 279 280 280 281 281 280 280 281 282 283 283 284 284 284 283 284 284 282 281 280 281 279 279 281 279 277 278 278 278 278 279 279 283 281 281 281 281 281 281 285
269 269 269 268 268 269 269 269 269 269 269 268 268 269 272 272 273 273 273 274 274 276 278 279 279 280 280 281 280 280 280 280 280 280 281 282 282 282 282 283 282 281 280 279 280 279 279 278 278 279 276 275 275 276 277 277 279 280 280 281 281 280 281
268 268 267 267 267 268 267 268 267 268 267 267 267 268 269 271 271 271 272 273 274 275 277 278 278 278 279 280 279 280 280 280 280 280 280 279 280 279 280 280 280 280 278 278 277 279 279 278 278 278 278 275 275 275 276 276 276 278 279 280 280 280 281
267 267 266 266 266 266 266 266 266 266 266 266 266 266 267 269 270 271 272 273 274 275 276 275 275 275 276 277 277 276 276 277 278 278 279 279 279 279 280 279 279 278 277 276 276 276 277 278 277 278 278 278 277 275 275 275 275 275 276 277 278 279 279
267 266 266 266 265 265 265 265 265 265 265 265 265 266 266 268 270 271 272 274 274 275 274 274 273 274 274 274 273 273 273 274 274 275 275 275 275 276 278 279 280 280 279 277 276 276 277 278 278 277 278 279 279 278 277 276 275 274 274 275 276 277 278
266 266 265 265 265 265 265 265 265 264 264 264 264 265 266 268 269 271 272 274 273 273 273 273 273 272 272 271 270 270 271 271 271 272 272 272 273 274 275 275 277 278 278 278 277 277 276 277 277 278 278 279 279 278 278 278 278 277 275 274 275 275 277
265 265 265 264 264 264 264 264 263 263 263 263 263 264 265 267 269 271 272 273 272 272 272 272 272 271 270 270 269 269 269 269 270 270 270 271 271 273 273 273 273 274 275 276 276 277 277 276 276 277 276 278 279 279 278 277 277 276 274 272 272 275 276
264 263 264 263 263 264 263 262 262 262 262 262 262 263 264 267 268 270 272 272 271 271 271 271 270 269 269 269 269 269 269 269 269 270 269 271 270 271 271 272 273 272 273 273 273 274 275 275 276 275 276 276 277 277 277 277 277 275 275 276 273 274 274
264 262 262 262 262 262 261 260 260 261 261 261 262 264 266 268 270 271 271 270 270 270 270 270 269 268 268 269 269 270 270 271 271 269 269 270 270 270 270 270 271 271 271 272 272 271 273 273 273 275 275 274 275 275 275 277 277 276 276 275 275 276 275
262 261 259 259 259 259 259 259 259 263 265 267 268 269 270 270 270 269 269 268 268 268 268 267 267 267 268 268 268 268 269 270 271 271 271 270 269 269 269 269 269 269 269 269 269 270 271 271 271 272 272 272 272 272 274 273 274 274 275 275 275 276 274
260 259 259 259 258 258 258 258 259 265 269 271 272 271 269 269 268 268 268 267 266 265 266 265 265 265 266 266 266 266 268 269 270 270 269 269 269 270 269 269 268 268 268 268 268 269 269 268 267 268 270 269 270 271 271 270 272 273 273 273 273 272 275
258 258 258 258 257 257 257 257 263 268 269 271 272 272 268 267 266 266 265 266 265 266 265 263 262 262 263 264 265 265 264 266 268 268 268 267 267 267 268 270 269 267 266 266 266 266 266 266 266 266 268 268 268 269 269 270 271 270 270 270 271 272 273
259 257 257 257 257 257 257 257 264 267 269 270 272 272 268 265 264 265 263 262 263 264 263 262 260 260 261 262 264 264 263 262 263 266 266 265 264 264 265 268 270 270 267 266 265 264 264 265 265 264 266 268 268 269 266 269 267 268 268 269 268 269 270
257 258 256 256 256 257 256 255 262 267 269 270 271 271 268 264 264 263 262 262 263 264 263 261 260 260 260 261 262 263 264 262 262 262 260 259 259 260 262 264 266 266 266 266 265 264 263 265 266 265 267 268 269 267 266 266 265 267 266 267 267 268 269
255 255 256 256 255 255 256 255 265 267 268 269 271 270 268 261 261 262 263 263 264 263 262 261 261 261 260 261 261 263 266 266 264 261 259 258 257 258 259 260 262 264 264 264 264 264 264 265 266 267 267 268 268 266 266 267 265 266 266 267 268 268 268
256 255 255 257 256 255 256 255 266 267 268 269 270 269 264 261 262 262 262 262 262 262 261 260 260 260 260 260 260 264 268 265 262 260 258 257 257 257 257 257 261 266 266 265 264 264 265 265 267 268 267 267 265 263 262 265 266 264 264 264 263 263 266
256 256 256 257 258 257 257 256 262 266 267 268 270 267 263 262 262 261 261 260 260 259 259 259 260 260 260 260 259 265 267 266 261 258 257 256 256 256 256 255 256 262 264 265 266 267 267 267 267 267 267 268 268 263 260 258 258 257 260 258 259 262 262
255 256 257 257 258 258 257 257 260 265 267 268 269 268 263 261 260 260 260 259 258 258 257 258 260 261 260 261 262 266 267 265 260 257 256 256 255 254 253 254 255 256 256 262 263 264 264 264 263 263 263 264 264 263 260 254 253 256 256 255 259 257 258
255 256 257 257 257 262 262 258 260 264 266 268 268 264 259 259 258 257 257 257 256 256 256 257 258 260 261 263 265 267 266 264 259 256 256 255 254 253 252 253 254 254 253 253 253 253 254 254 255 255 254 255 257 257 257 254 253 254 254 254 255 256 257
256 256 257 258 258 260 260 259 258 261 266 268 267 266 259 258 257 256 255 255 254 252 254 256 256 258 260 265 266 266 266 265 264 257 255 255 254 252 251 253 252 254 253 252 252 251 252 252 252 252 252 252 253 254 254 254 254 253 253 253 254 255 255
256 257 257 258 259 260 260 260 258 260 265 267 267 266 261 257 256 255 253 251 253 253 254 254 255 256 260 263 265 265 265 264 264 261 257 256 255 255 255 253 249 251 253 251 251 251 251 250 250 250 251 251 251 252 252 252 253 252 252 251 251 250 251
257 256 257 257 259 260 260 260 261 258 263 266 266 266 263 257 256 255 252 252 252 254 254 254 255 255 260 263 264 264 264 263 262 262 258 258 260 259 256 251 251 249 250 250 250 249 249 249 249 248 249 250 249 250 250 250 250 251 251 251 249 250 250
256 256 257 257 259 258 258 258 259 262 260 264 266 266 265 263 260 260 254 253 252 252 253 253 254 257 261 262 263 263 262 262 261 258 258 260 259 256 252 251 249 249 248 248 248 248 247 248 248 247 248 248 248 248 249 248 248 248 249 250 251 252 251
256 257 257 257 257 257 257 257 257 260 261 261 263 265 264 263 262 259 254 253 251 251 253 253 255 259 261 262 261 261 260 260 257 256 258 257 253 252 251 248 248 247 247 247 247 247 246 246 247 247 247 248 248 248 247 248 248 248 248 248 248 250 251
256 256 256 256 256 255 255 255 255 255 259 260 260 263 263 261 259 257 256 253 252 254 254 258 260 259 259 259 259 257 255 253 253 254 253 252 251 250 247 247 246 246 245 245 245 246 245 245 246 246 247 248 248 248 248 247 248 246 247 247 248 248 250
256 255 255 255 255 255 254 254 253 253 254 256 257 257 259 260 257 256 256 255 255 256 256 256 255 254 253 252 251 250 249 249 250 251 251 250 249 246 247 245 245 244 245 244 244 245 244 245 245 245 246 247 248 246 246 247 247 247 247 247 247 247 247
255 255 254 254 253 253 253 252 251 251 251 250 250 250 252 252 253 255 253 250 250 252 252 253 252 252 252 251 251 250 250 249 249 247 247 246 246 246 246 246 244 244 243 244 243 244 242 244 243 245 246 245 245 245 246 247 247 245 246 247 246 245 245
254 254 253 252 252 250 252 251 250 249 250 249 249 249 249 249 249 246 246 247 247 247 249 248 250 248 247 246 246 245 244 244 244 245 245 244 243 244 245 247 248 247 243 242 241 241 242 243 242 244 243 244 244 244 245 246 246 246 245 246 245 244 244
253 255 252 251 250 250 249 250 249 249 255 255 255 251 248 247 245 245 245 249 250 247 247 246 245 245 245 244 245 243 242 242 243 244 243 242 243 242 243 242 241 242 242 242 242 242 242 243 241 243 242 243 243 244 244 245 244 245 243 245 243 243 244
257 256 252 250 248 247 246 245 247 257 261 262 260 258 256 255 256 254 250 252 251 248 243 242 242 242 243 242 242 242 242 242 240 241 242 241 245 243 241 242 241 240 242 243 242 242 242 242 242 241 242 242 243 243 242 245 246 243 244 242 243 242 243
263 261 257 253 249 252 258 258 258 258 262 262 262 261 261 259 256 255 253 252 248 242 240 242 242 240 241 241 240 241 240 240 240 241 240 239 240 240 242 243 240 241 242 242 242 242 242 242 241 241 241 242 243 243 243 241 243 242 242 242 242 242 243
262 262 260 258 256 253 248 255 258 259 261 261 260 260 260 260 259 258 254 252 250 242 239 239 240 239 238 239 240 241 242 240 239 240 239 239 239 240 241 241 240 242 239 241 240 241 242 241 241 241 241 241 242 243 241 241 242 242 241 242 241 242 244
259 259 260 260 260 260 259 257 257 259 260 260 259 258 256 258 256 253 252 250 243 240 239 238 238 238 238 239 239 238 238 239 239 239 240 239 240 240 240 239 240 241 241 242 242 241 240 241 241 241 242 242 241 241 240 241 241 241 241 241 241 242 243
257 256 256 256 257 257 257 257 258 257 257 258 258 257 256 254 253 254 252 248 240 239 238 237 238 239 238 238 239 238 240 240 239 240 240 240 239 238 237 238 238 239 240 241 241 239 240 241 240 241 239 239 239 239 240 239 241 240 240 240 240 241 242
245 252 254 250 252 254 254 254 254 255 255 255 254 255 256 255 246 243 242 241 239 239 237 239 240 239 240 237 238 239 240 239 237 238 240 239 239 238 237 238 239 240 240 240 239 239 239 241 241 238 240 240 239 238 239 240 240 240 240 240 241 242 242
242 240 248 253 253 253 254 254 253 254 255 255 255 254 252 241 238 239 239 241 240 239 240 239 238 238 238 236 237 238 238 236 237 238 237 235 236 239 238 237 238 240 240 240 239 240 241 241 238 239 239 238 238 238 239 240 240 240 241 242 242 242 242
Wind_Speed
3 3 5 7 7 8 8 8 8 8 9 9 10 9 9 10 10 11 9 10 11 9 8 7 8 7 5 4 3 3 4 6 8 8 8 8 8 9 9 9 9 10 10 5 2 3 4 1 3 1 3 4 4 4 4 5 5 5 5 6 7 8 12
1 2 4 5 6 7 7 7 8 8 7 9 10 11 9 10 11 11 11 10 10 10 8 8 7 7 6 5 2 2 1 1 1 2 6 7 7 8 8 8 9 9 10 9 4 5 2 1 1 1 0 4 3 4 2 3 4 3 5 6 6 7 8
1 2 3 3 4 5 6 7 7 6 7 7 9 10 10 11 11 12 12 11 11 10 10 8 6 6 6 4 2 3 2 2 2 1 1 1 1 3 5 5 6 7 8 7 5 3 2 1 1 2 0 0 1 0 0 1 2 3 3 3 3 5 5
1 1 2 3 3 4 4 6 6 6 6 8 8 8 10 11 10 10 10 10 11 10 6 5 5 6 6 6 5 6 5 6 5 5 3 3 3 2 2 0 1 2 3 2 4 2 2 1 1 2 4 3 3 2 2 1 2 1 2 3 3 3 4
1 1 1 3 3 4 4 5 6 7 7 8 8 8 8 9 10 9 10 9 7 7 6 6 5 6 7 7 6 7 6 6 8 6 5 5 5 4 4 2 1 1 1 2 3 2 1 1 1 1 1 2 3 2 1 1 1 3 3 3 3 3 3
1 1 2 2 3 3 4 4 4 6 8 8 8 8 8 8 8 9 9 8 4 6 5 5 5 7 8 8 8 6 6 7 7 6 6 7 6 5 4 4 4 3 1 2 3 4 3 1 3 2 1 2 1 2 4 4 3 2 1 3 4 3 3
1 1 1 2 2 3 3 3 4 6 7 8 8 7 8 9 8 9 9 5 2 3 5 5 6 7 8 8 7 7 7 6 6 6 6 6 6 5 5 4 4 4 4 2 0 2 3 3 2 3 3 2 1 2 2 3 4 5 3 2 3 4 3
1 2 1 3 3 4 2 2 3 5 7 7 8 8 9 9 9 8 9 3 2 3 4 6 7 7 7 7 6 6 6 6 5 4 5 5 5 5 5 4 4 4 4 4 4 4 4 2 1 2 1 1 1 1 2 2 4 6 5 5 2 3 4
1 2 3 3 4 4 2 1 3 4 5 7 9 9 9 10 10 9 4 1 2 3 4 5 6 7 7 8 11 12 10 9 8 5 4 5 5 6 5 5 5 5 5 4 4 3 2 4 4 4 5 4 2 4 5 5 2 4 4 3 5 5 4
1 1 3 4 4 4 2 2 3 7 14 14 10 11 9 3 3 4 3 3 2 2 5 6 5 7 12 12 12 13 12 12 12 12 9 7 7 6 5 5 5 5 5 4 5 5 5 4 5 6 6 6 7 6 6 8 7 6 6 4 5 5 3
2 2 3 4 4 4 3 3 4 11 16 15 16 10 1 1 1 2 2 2 2 2 4 5 5 5 7 9 10 9 13 13 14 14 14 15 15 13 9 6 6 5 5 4 4 4 6 7 6 7 6 7 6 7 6 6 5 5 5 4 5 6 3
2 3 4 3 3 4 4 3 7 14 13 14 14 10 2 2 1 2 2 1 2 2 4 4 4 4 4 5 7 6 7 8 12 13 14 14 15 16 18 16 11 7 6 7 5 6 6 6 6 5 6 6 7 7 7 6 5 6 6 7 6 6 4
2 4 4 3 4 4 4 2 8 13 12 13 14 6 5 2 1 1 1 1 1 3 3 3 3 3 4 4 9 7 5 4 6 10 14 13 13 14 16 16 18 17 10 7 7 6 6 6 5 6 5 7 6 6 5 6 5 5 5 5 6 6 7
3 4 4 4 4 4 4 3 7 12 11 13 13 6 6 1 2 1 1 3 2 4 5 4 3 4 5 5 5 5 6 2 4 7 8 8 8 8 11 13 16 16 16 12 7 6 5 6 6 4 6 7 7 6 5 5 5 7 6 7 7 8 8
4 4 3 4 4 4 3 3 8 10 11 11 13 4 5 2 2 4 5 5 8 8 7 6 5 5 4 4 5 5 8 4 7 7 7 7 7 7 7 9 9 9 8 8 7 7 6 6 6 5 7 6 7 8 7 5 3 4 5 7 8 7 6
2 3 4 5 4 4 4 3 8 9 11 11 12 2 2 3 5 6 7 8 8 8 6 5 5 4 5 4 5 8 10 11 8 8 7 6 5 6 6 8 10 14 12 9 7 6 6 6 8 11 9 11 10 8 8 6 5 8 8 8 7 8 7
3 3 3 5 5 4 3 2 5 9 10 11 13 2 1 4 6 7 7 7 7 6 6 5 5 4 4 5 5 8 11 13 12 8 7 6 5 6 7 7 7 13 15 14 14 14 15 16 16 16 17 18 20 14 9 4 7 8 7 5 6 7 4
2 3 4 3 4 2 3 3 4 8 10 10 14 2 5 4 6 6 6 6 6 5 4 6 10 7 5 6 6 6 13 14 10 7 5 6 8 9 7 7 7 6 8 14 15 16 17 18 18 18 18 20 20 20 15 10 8 6 5 3 4 4 5
3 4 3 3 3 7 3 2 3 7 10 11 6 9 4 6 6 6 5 5 5 4 4 4 6 9 8 7 3 6 14 14 11 7 5 5 7 6 7 6 6 7 7 8 8 9 10 12 13 11 10 12 19 19 15 9 6 6 6 5 5 6 7
3 3 4 3 3 5 2 1 2 5 10 13 6 13 7 5 6 6 5 4 3 3 3 3 3 5 10 10 6 7 8 13 16 9 6 7 6 5 6 4 6 7 6 6 7 7 8 8 8 8 9 9 10 11 11 10 7 7 6 6 6 6 6
3 4 4 4 3 3 1 2 1 4 10 12 11 14 12 7 6 5 5 4 4 3 2 3 3 3 8 7 7 8 10 11 13 13 6 6 6 6 7 8 6 7 10 6 7 7 7 7 7 7 6 7 8 9 8 7 7 6 6 6 5 6 6
3 4 4 3 3 2 3 3 4 3 6 12 10 14 16 8 5 6 5 5 3 3 2 3 3 4 5 7 9 10 11 13 13 13 7 8 13 14 14 8 5 4 5 5 6 6 6 7 7 7 7 7 7 7 8 6 5 5 4 5 3 4 5
4 4 3 1 3 3 3 3 4 7 4 11 9 11 13 14 9 10 5 5 4 2 2 2 3 4 6 9 12 13 14 13 15 11 9 14 15 15 13 8 5 5 5 6 6 6 7 6 6 6 7 7 7 7 6 5 5 5 5 4 3 4 3
4 4 1 4 3 3 3 3 4 5 8 8 12 10 11 12 13 11 5 4 3 1 2 2 1 5 10 11 13 14 15 16 13 10 15 15 15 13 10 6 6 5 5 5 6 6 6 6 5 5 5 6 5 5 6 5 5 5 5 4 4 4 3
3 1 2 4 3 2 3 3 3 3 5 9 10 11 11 12 12 11 9 5 2 3 2 7 11 12 14 15 15 16 14 12 14 16 15 15 14 10 5 6 5 5 5 6 6 5 5 4 5 4 3 4 4 4 4 3 4 3 4 3 4 3 3
2 2 2 3 3 3 2 2 2 3 3 5 7 7 10 11 11 10 10 8 6 10 12 13 14 15 14 12 10 8 7 7 8 14 15 14 11 5 6 5 6 5 6 6 5 5 5 5 4 4 5 4 4 5 6 6 7 6 8 7 7 7 5
1 2 2 2 3 2 1 1 1 2 2 4 5 4 4 6 6 8 9 7 6 7 7 10 9 9 12 11 15 14 12 10 9 8 7 6 5 5 5 5 4 5 5 5 5 5 4 4 4 4 4 5 6 5 6 5 7 5 7 7 7 5 6
1 2 2 3 2 2 0 0 0 1 2 2 4 5 4 4 5 4 5 6 5 5 6 6 8 9 5 6 6 6 5 5 5 6 5 5 5 5 6 7 7 6 4 3 2 2 3 4 4 5 6 5 6 5 6 6 7 7 7 8 7 8 9
4 4 2 3 4 2 1 0 2 3 6 6 5 7 5 5 4 5 5 6 9 7 5 5 6 5 6 5 5 5 5 5 5 5 6 4 5 6 5 5 5 5 5 4 5 5 6 5 5 6 5 6 6 6 7 6 6 6 6 7 5 6 7
6 5 4 4 1 1 1 2 4 6 13 9 14 11 9 9 9 8 7 8 10 6 6 5 6 5 5 4 5 5 5 5 4 6 5 5 5 6 4 5 4 4 5 4 3 3 5 5 4 5 5 6 5 6 5 7 7 6 5 5 6 6 7
8 10 7 7 2 1 3 0 3 8 6 7 8 11 8 9 11 11 11 11 8 5 4 5 6 4 4 3 3 4 3 2 3 2 3 4 4 3 3 5 4 4 5 4 3 3 4 3 3 4 4 5 5 5 6 5 5 4 5 5 5 5 6
6 7 8 6 7 4 1 3 4 5 5 5 4 4 5 6 8 10 9 8 8 6 3 4 6 5 3 2 4 2 2 1 1 1 1 1 3 4 2 3 4 3 2 2 2 2 5 3 3 2 3 3 4 5 5 5 6 6 6 6 6 5 6
8 9 9 7 4 4 4 3 0 3 4 4 4 5 7 8 10 9 9 7 5 6 4 2 4 4 2 3 3 1 1 1 0 0 0 0 0 1 2 1 2 2 1 1 1 1 2 2 2 2 4 4 4 4 5 5 5 6 5 5 5 6 7
8 8 8 8 6 6 6 6 4 6 6 4 5 4 8 8 7 9 7 7 6 4 5 3 3 2 2 2 1 1 1 0 0 0 0 0 0 1 2 2 2 1 1 1 1 1 1 1 2 3 2 4 2 2 2 4 5 5 5 5 5 5 6
2 4 4 2 4 4 4 3 3 3 3 3 3 3 7 9 7 5 4 4 2 2 3 3 1 2 1 2 1 1 1 0 0 0 0 1 1 2 2 2 2 2 1 1 1 2 2 2 2 2 2 1 3 3 4 4 4 4 4 4 5 5 5
1 1 5 1 3 3 2 2 0 1 3 5 5 4 5 3 2 4 3 3 1 1 1 1 2 1 1 2 1 1 1 1 1 1 1 2 1 1 1 2 2 4 2 1 1 2 2 3 3 2 3 3 2 2 3 4 4 4 4 4 5 5 5
Wind_Direction
326 338 334 335 335 332 333 335 337 339 337 335 329 326 318 321 326 328 328 330 325 323 322 314 310 305 301 301 310 271 253 233 228 222 221 221 220 224 223 222 230 240 254 257 263 234 240 284 163 223 208 222 238 247 238 218 221 220 218 225 230 240 248
312 330 331 332 330 330 331 332 334 336 336 331 327 325 323 322 324 323 323 320 318 312 312 307 301 294 295 298 286 316 10 355 326 234 226 228 222 224 224 213 218 233 242 248 228 247 242 284 229 210 65 179 206 248 242 230 235 231 217 221 221 228 242
310 322 326 323 321 326 327 329 329 330 330 323 320 319 318 316 317 318 315 313 310 307 301 303 310 329 327 310 298 319 351 3 15 26 82 95 232 221 235 221 220 228 238 240 240 231 236 227 239 140 161 167 335 297 153 232 263 248 272 264 247 243 246
258 307 307 307 314 320 323 324 321 324 323 314 311 308 308 308 307 302 301 300 296 299 319 345 1 354 350 346 24 19 13 8 6 14 17 41 17 41 8 240 123 149 170 182 180 306 188 325 38 10 44 41 55 17 11 321 302 344 263 270 265 250 256
227 252 282 295 305 316 322 317 322 321 316 310 301 298 297 298 297 298 297 300 326 351 347 351 20 10 11 12 29 26 19 13 19 11 22 26 14 15 352 354 2 242 130 159 169 230 339 305 64 306 21 28 9 343 18 355 350 298 294 285 270 270 268
248 225 273 285 291 301 306 314 318 312 308 305 300 295 291 289 290 294 299 300 343 348 350 358 23 32 28 32 36 28 19 13 19 17 23 26 10 11 0 14 11 4 280 191 200 187 222 229 200 273 308 303 22 301 297 297 289 281 291 281 300 286 260
231 259 267 284 286 290 293 311 309 305 303 299 296 290 287 288 289 294 294 304 2 9 359 8 34 41 39 37 34 31 23 16 17 25 20 27 6 357 19 16 21 11 10 5 248 187 191 199 237 206 237 274 215 258 234 251 295 298 279 245 230 280 279
246 270 272 281 284 281 277 290 303 301 297 293 289 287 285 280 278 278 289 310 24 18 24 41 42 44 42 40 33 34 24 25 23 19 19 21 10 9 20 13 15 22 23 23 28 27 22 19 23 34 227 333 35 300 280 220 232 258 270 280 268 218 247
264 296 303 294 287 283 276 277 287 289 289 292 289 282 275 275 271 272 232 85 8 24 42 53 52 44 42 41 36 34 34 34 36 31 23 20 22 19 21 14 21 22 23 22 44 26 43 42 32 28 29 15 5 340 323 317 288 258 256 247 265 271 227
292 308 297 299 290 282 282 274 275 282 286 284 272 267 272 300 359 32 30 41 14 21 62 53 49 45 45 37 29 25 29 38 44 49 50 38 34 21 23 23 29 34 32 27 33 23 22 30 46 31 30 33 22 9 359 11 353 340 320 310 285 277 257
298 296 295 285 282 291 286 276 274 286 298 291 290 292 46 343 29 42 36 38 36 27 79 60 52 37 36 33 26 19 23 40 48 51 46 44 41 38 33 21 33 42 28 35 41 29 36 37 39 20 25 19 12 2 17 350 338 333 338 341 310 300 305
275 280 277 278 289 292 273 271 283 301 301 295 293 305 99 22 39 52 0 30 48 71 108 92 70 42 28 24 28 24 15 26 43 47 44 42 41 37 33 40 44 38 37 36 39 45 38 41 35 12 13 10 10 349 0 342 1 351 346 344 334 314 318
279 274 282 285 290 292 277 262 291 305 300 296 295 307 97 22 24 68 347 347 40 96 104 109 93 70 36 13 16 10 12 29 37 50 48 38 32 36 33 34 40 44 46 40 40 47 29 30 24 17 357 9 350 350 355 331 359 335 342 327 309 305 311
280 282 286 278 277 284 267 269 283 300 297 298 295 312 93 33 43 58 24 0 10 83 70 55 56 59 40 13 9 353 345 34 79 66 54 38 30 28 27 31 35 36 32 34 34 34 32 13 25 337 0 352 358 359 339 342 333 328 325 313 296 294 297
283 278 275 282 287 279 265 259 291 299 300 300 298 341 95 72 43 43 39 40 61 62 58 44 45 39 31 9 353 338 340 72 80 79 65 51 36 34 36 28 18 25 24 23 28 24 21 9 0 7 11 2 15 11 351 343 316 316 318 300 292 286 273
259 269 286 292 289 276 265 271 297 308 302 300 297 2 111 94 66 67 64 51 62 58 49 41 32 24 14 355 343 318 14 79 72 71 63 54 42 48 47 35 12 23 24 25 25 16 19 18 25 33 30 32 40 27 3 344 10 18 357 337 327 308 310
277 281 288 293 290 263 238 255 301 314 308 302 302 306 115 80 80 83 76 67 57 50 34 29 25 13 359 340 331 325 65 72 78 62 61 54 46 62 52 27 13 17 20 25 31 37 40 40 37 34 33 35 36 41 24 17 40 13 357 0 315 299 328
298 302 290 286 306 275 195 256 293 319 315 313 309 32 98 89 86 84 80 74 60 43 28 15 18 17 350 331 306 344 75 67 73 65 57 58 55 54 37 17 10 17 13 24 33 37 39 40 38 36 33 33 36 39 39 51 46 346 16 349 334 315 329
317 294 292 297 286 299 248 214 323 321 319 315 349 98 78 91 86 81 72 70 61 37 21 8 360 1 348 328 341 49 83 78 75 66 48 52 66 53 44 18 6 23 18 18 26 27 31 30 29 28 30 28 33 36 38 37 28 357 23 359 343 330 324
296 289 284 288 288 284 265 137 353 313 325 327 86 100 93 67 89 84 80 74 74 52 18 352 329 342 341 353 36 48 51 70 75 68 52 54 63 58 39 18 24 31 39 31 44 38 39 37 27 26 26 22 24 27 26 25 18 18 14 8 353 344 337
293 288 282 286 274 262 202 126 67 331 334 348 101 95 92 77 82 99 87 89 74 53 49 1 343 326 335 19 55 62 67 64 69 69 60 70 69 72 74 57 38 27 40 43 46 43 40 37 29 29 30 27 24 21 14 12 12 20 14 7 360 345 335
294 287 286 289 285 122 94 68 61 22 341 3 93 97 102 98 108 120 112 91 63 44 33 357 333 309 351 61 67 68 68 67 67 67 53 65 66 60 59 53 48 34 37 44 46 44 42 35 28 24 25 27 21 14 6 359 3 5 14 3 357 341 329
291 291 296 303 80 76 67 41 21 35 19 9 43 90 97 98 89 77 88 93 84 51 355 309 319 311 58 71 73 67 67 67 65 61 62 64 62 59 57 54 46 46 42 47 44 43 43 32 29 21 19 16 13 1 354 349 353 354 357 346 341 341 328
296 300 348 124 101 82 53 35 26 29 38 31 23 55 64 63 68 78 88 87 98 38 334 311 334 45 69 70 67 66 63 59 59 64 62 61 60 54 52 49 46 48 43 50 49 43 37 30 23 23 15 13 4 353 335 339 347 349 345 336 337 329 323
294 330 101 115 117 89 67 28 34 16 37 52 39 41 57 61 69 82 90 80 59 26 27 81 79 68 58 56 58 60 58 56 54 54 57 58 54 49 40 45 46 44 44 48 42 38 29 22 13 8 349 341 350 341 328 355 348 356 334 333 326 315 330
38 79 103 111 99 108 94 53 25 26 30 53 58 51 56 70 78 81 84 87 90 83 73 68 68 67 65 63 62 58 54 51 53 53 51 50 48 36 41 41 45 38 48 47 38 34 25 3 353 351 339 337 349 357 358 1 351 354 350 2 352 359 346
83 90 118 126 115 117 126 76 45 21 30 57 83 67 64 65 71 77 76 61 55 62 66 75 76 79 79 75 68 65 61 59 49 45 41 34 36 33 31 38 55 58 56 44 40 26 12 352 345 336 356 0 3 359 355 1 354 355 351 353 351 3 332
220 194 166 169 164 128 120 310 305 200 155 120 90 83 72 79 84 87 97 93 79 77 74 77 71 66 56 63 58 53 45 45 48 46 40 37 32 31 27 34 39 48 43 38 45 20 15 5 8 5 1 1 1 353 353 355 3 353 352 349 348 0 351
239 220 188 152 160 169 199 275 264 259 190 173 158 144 122 110 117 122 124 127 123 92 72 72 65 67 56 51 64 56 54 40 40 39 30 27 32 21 27 29 36 34 19 5 21 22 19 9 13 1 358 357 1 352 357 343 2 347 3 340 2 359 337
229 178 137 105 187 195 163 193 239 275 298 188 160 152 149 150 138 128 135 124 106 97 90 80 88 72 78 71 65 63 55 46 40 37 26 13 23 18 21 30 23 25 12 11 12 15 17 6 17 2 0 2 354 342 351 347 357 342 347 355 342 349 333
115 133 139 143 147 153 129 184 313 314 308 124 155 152 148 118 118 124 125 121 98 54 87 104 92 84 74 77 80 78 72 55 46 31 29 10 6 4 20 19 18 6 2 7 5 3 5 4 13 2 355 6 348 350 340 341 339 347 343 341 335 337 325
66 113 145 145 143 125 20 342 347 327 74 87 102 65 54 111 116 120 120 118 105 94 97 107 118 114 109 105 85 81 85 88 78 40 43 18 17 1 3 18 352 353 3 354 0 3 355 353 354 354 355 356 345 346 340 334 340 343 343 333 335 324 323
38 34 40 53 84 140 140 144 11 29 66 66 74 81 67 87 89 98 109 91 66 115 129 132 131 132 134 112 120 140 135 141 132 123 97 163 75 333 319 308 296 328 337 343 323 29 340 336 340 345 349 349 338 344 334 340 336 329 330 327 327 320 322
36 40 42 39 33 36 44 42 43 39 46 49 46 98 125 121 117 106 95 103 130 123 147 154 130 138 147 161 151 161 165 156 207 195 207 240 257 245 266 286 287 16 344 318 337 341 316 331 323 334 344 324 330 312 314 319 320 325 330 327 318 313 313
334 29 77 87 53 57 66 68 77 116 115 106 104 101 105 99 81 77 46 46 58 108 143 146 154 157 183 169 173 193 178 195 208 212 216 244 276 290 292 314 335 317 303 304 313 327 309 301 330 314 303 318 315 321 325 319 324 323 316 311 313 313 312
244 255 298 356 77 68 73 84 89 215 204 167 149 140 92 92 103 108 126 122 123 141 189 161 170 173 207 202 220 194 204 208 201 219 222 229 212 266 272 283 299 299 298 289 316 297 314 334 329 319 320 320 308 302 300 313 314 315 312 310 310 309 318